Weather History for FBMN - September, 2012

Change the Weather History Date:

Tuesday, September 4, 2012

  Actual Average Record
Temperature  
Mean Temperature 78 °F -  
Max Temperature 97 °F 89 °F 97 °F (2012)
Min Temperature 59 °F 61 °F 51 °F (2004)
Cooling Degree Days 13    
Growing Degree Days 28 (Base 50)    
Moisture  
Dew Point 50 °F    
Average Humidity 36    
Maximum Humidity 88    
Minimum Humidity 12    
Precipitation  
Precipitation 0.00 in - - ()
Sea Level Pressure  
Sea Level Pressure 30.05 in    
Wind  
Wind Speed 4 mph ()    
Max Wind Speed 13 mph    
Max Gust Speed -    
Visibility 6.0 miles    
Events      
Averages and records for this station are not official NWS values.
T = Trace of Precipitation, MM = Missing Value Source: Averaged Metar Reports

Daily Weather History Graph

Daily Weather History Graph

Search for Another Location

Airport or City:

Trip Planner

Search our weather history database for the weather conditions in past years. The results will help you decide how hot, cold, wet, or windy it might be!

Date:

Astronomy

Sep. 04, 2012 Rise Set
Actual Time 6:32 AM CAT 6:18 PM CAT
Civil Twilight 6:09 AM CAT 6:40 PM CAT
Nautical Twilight 5:44 AM CAT 7:06 PM CAT
Astronomical Twilight 5:18 AM CAT 7:32 PM CAT
Moon 9:46 PM CAT (9/4) 8:42 AM CAT (9/4)
Length of Visible Light 12h 30m
Length of Day
11h 46m
Waning Gibbous, 85% of the Moon is Illuminated
Sep 4
Waning Gibbous
Sep 8
Last Quarter
Sep 16
New
Sep 22
First Quarter
Sep 30
Full

Hourly Weather History & Observations

Time (CAT) Temp. Heat Index Dew Point Humidity Pressure Visibility Wind Dir Wind Speed Gust Speed Precip Events Conditions
12:00 AM 71.6 °F - 50.0 °F 46% 30.09 in - East 4.6 mph - N/A   Clear
1:00 AM 71.6 °F - 50.0 °F 46% 30.09 in - East 4.6 mph - N/A   Clear
2:00 AM 67 °F - 45 °F 33%  in 6 mi NE 1.2 mph - -  
2:00 AM 66.2 °F - 62.6 °F 88% 30.09 in - Variable 1.2 mph - N/A   Clear
3:00 AM 66.2 °F - 44.6 °F 46% 30.09 in - NE 4.6 mph - N/A   Clear
4:00 AM 64.4 °F - 44.6 °F 49% 30.06 in - Variable 2.3 mph - N/A   Clear
5:00 AM 62.6 °F - 44.6 °F 52% 30.06 in - East 3.5 mph - N/A   Clear
6:00 AM 66.2 °F - 44.6 °F 46% 30.06 in - Variable 2.3 mph - N/A   Clear
7:00 AM 64.4 °F - 46.4 °F 52% 30.09 in - NE 4.6 mph - N/A   Clear
8:00 AM 70 °F - 53 °F 45%  in 6 mi NNE 3.5 mph - -  
8:00 AM 82.4 °F 81.4 °F 53.6 °F 37% 30.12 in - NNE 8.1 mph - N/A   Clear
9:00 AM 82.4 °F 81.4 °F 53.6 °F 37% 30.12 in - NNE 8.1 mph - N/A   Clear
10:00 AM 86.0 °F - 51.8 °F 31% 30.12 in - North 12.7 mph - N/A   Clear
11:00 AM 91.4 °F 89.1 °F 53.6 °F 28% 30.09 in - North 10.4 mph - N/A   Clear
12:00 PM 93.2 °F - 50.0 °F 23% 30.09 in - NW 9.2 mph - N/A   Clear
1:00 PM 93.2 °F - 50.0 °F 23% 30.04 in - East 5.8 mph - N/A   Clear
2:00 PM 96 °F - 50 °F 12%  in 6 mi SSE 4.6 mph - -  
2:00 PM 96.8 °F - 50.0 °F 20% 30.01 in - SSE 4.6 mph - N/A   Clear
3:00 PM 96.8 °F - 51.8 °F 22% 30.01 in - ENE 5.8 mph - N/A   Clear
4:00 PM 96.8 °F - 48.2 °F 19% 29.98 in - NNW 11.5 mph - N/A   Clear
5:00 PM 96.8 °F - 48.2 °F 19% 29.98 in - NW 5.8 mph - N/A   Clear
6:00 PM 95.0 °F - 46.4 °F 19% 29.98 in - NNW 5.8 mph - N/A   Clear
7:00 PM 87.8 °F 85.7 °F 53.6 °F 31% 29.98 in - NW 5.8 mph - N/A   Clear
8:00 PM 82 °F - 54 °F 28%  in 6 mi NW 2.3 mph - -  
8:00 PM 82.4 °F 81.4 °F 53.6 °F 37% 30.01 in - Variable 2.3 mph - N/A   Clear
9:00 PM 80.6 °F - 51.8 °F 37% 30.04 in - WSW 6.9 mph - N/A   Clear
10:00 PM 77.0 °F - 51.8 °F 41% 30.04 in - SSE 4.6 mph - N/A   Clear
11:00 PM 73.4 °F - 51.8 °F 47% 30.04 in - Variable 2.3 mph - N/A   Clear